Location: Unspecified
(36.5600°N, 136.6600°E)
Time: 04:34:55
(UTC+09:00)

BlueWalker 3 - Pass Details

Date: 21 June 2024
Orbit: 480 x 491 km, 53.2° (Epoch: 24 July)

Event Time Altitude Azimuth Distance (km) Brightness Sun altitude
Rises 19:59:24 0° 236° (SW) 2,534 5.8 -8.2°
Reaches altitude 10° 20:01:36 10° 241° (WSW) 1,655 4.9 -8.6°
Maximum altitude 20:05:15 53° 319° (NW) 594 2.8 -9.1°
Drops below altitude 10° 20:08:55 10° 38° (NE) 1,657 4.6 -9.7°
Sets 20:11:07 0° 43° (NE) 2,538 5.5 -10.1°
